Location: Smyrna_Hopewell
(35.6500°N, 81.0330°W)
Time: 04:54:42
(UTC-04:00)

Cosmos 2221 - Visible Passes

Search period start: 22 April 2018 00:00
Search period end: 02 May 2018 00:00
Orbit: 592 x 618 km, 82.5° (Epoch: 21 April)

Date Brightness Start Highest point End Pass type
(mag) Time Alt. Az. Time Alt. Az. Time Alt. Az.
22 Apr 4.7 20:41:26 10° SW 20:45:13 31° WNW 20:49:01 10° NNW visible
23 Apr 5.6 20:55:18 10° WSW 20:58:16 18° WNW 21:01:15 10° NNW visible
24 Apr 6.3 21:10:32 10° W 21:11:24 10° WNW 21:12:15 10° WNW visible
26 Apr 5.8 05:53:06 10° NE 05:55:54 17° ENE 05:58:41 10° ESE visible
27 Apr 5.0 06:05:13 10° NNE 06:08:57 28° ENE 06:12:43 10° SE visible
30 Apr 6.0 05:08:37 10° NE 05:09:57 11° ENE 05:11:16 10° E visible
01 May 5.5 05:19:55 10° NNE 05:23:04 19° ENE 05:26:12 10° ESE visible
